Time,TemperatureF,DewpointF,PressureIn,WindDirection,WindDirectionDegrees,WindSpeedMPH,WindSpeedGustMPH,Humidity,HourlyPrecipIn,Conditions,Clouds,dailyrainin,SoftwareType,DateUTC
2013-03-04 00:00:00,33.5,26.1,29.58,West,273,4.0,5.0,74,0.00,,,0.00,VWS V14.01,2013-03-04 05:00:00,
2013-03-04 00:05:00,33.4,25.7,29.58,WNW,300,3.0,12.0,73,0.00,,,0.00,VWS V14.01,2013-03-04 05:05:00,
2013-03-04 00:10:00,33.3,25.6,29.58,NW,313,2.0,12.0,73,0.00,,,0.00,VWS V14.01,2013-03-04 05:10:00,
2013-03-04 00:15:00,33.3,25.6,29.58,SW,215,1.0,12.0,73,0.00,,,0.00,VWS V14.01,2013-03-04 05:15:00,
2013-03-04 00:20:00,33.2,25.5,29.58,WNW,291,5.0,12.0,73,0.00,,,0.00,VWS V14.01,2013-03-04 05:20:00,
2013-03-04 00:25:00,33.2,25.5,29.58,WNW,294,1.0,12.0,73,0.00,,,0.00,VWS V14.01,2013-03-04 05:25:00,
2013-03-04 00:30:00,33.1,25.4,29.58,NW,315,0.0,12.0,73,0.00,,,0.00,VWS V14.01,2013-03-04 05:30:00,
2013-03-04 00:35:00,33.1,25.4,29.58,WNW,302,6.0,12.0,73,0.00,,,0.00,VWS V14.01,2013-03-04 05:35:00,
2013-03-04 00:40:00,33.1,25.4,29.58,NW,304,3.0,12.0,73,0.00,,,0.00,VWS V14.01,2013-03-04 05:40:00,
2013-03-04 00:45:00,33.1,25.4,29.58,WNW,302,2.0,12.0,73,0.00,,,0.00,VWS V14.01,2013-03-04 05:45:00,
2013-03-04 00:50:00,33.0,25.3,29.58,NW,304,2.0,12.0,73,0.00,,,0.00,VWS V14.01,2013-03-04 05:50:00,
2013-03-04 00:55:00,32.9,25.2,29.58,WNW,284,2.0,12.0,73,0.00,,,0.00,VWS V14.01,2013-03-04 05:55:00,
2013-03-04 01:00:00,32.9,25.2,29.58,WSW,252,6.0,8.0,73,0.00,,,0.00,VWS V14.01,2013-03-04 06:00:00,
2013-03-04 01:05:00,32.9,24.9,29.58,NW,325,2.0,9.0,72,0.00,,,0.00,VWS V14.01,2013-03-04 06:05:00,
2013-03-04 01:10:00,32.9,25.2,29.58,NW,304,5.0,9.0,73,0.00,,,0.00,VWS V14.01,2013-03-04 06:10:00,
2013-03-04 01:15:00,32.8,25.1,29.59,WNW,290,5.0,14.0,73,0.00,,,0.00,VWS V14.01,2013-03-04 06:15:00,
2013-03-04 01:20:00,32.8,25.1,29.58,West,268,0.0,14.0,73,0.00,,,0.00,VWS V14.01,2013-03-04 06:20:00,
2013-03-04 01:25:00,32.8,25.1,29.59,NW,304,4.0,14.0,73,0.00,,,0.00,VWS V14.01,2013-03-04 06:25:00,
2013-03-04 01:30:00,32.7,25.0,29.59,WNW,296,5.0,14.0,73,0.00,,,0.00,VWS V14.01,2013-03-04 06:30:00,
2013-03-04 01:35:00,32.7,25.0,29.58,WNW,287,5.0,14.0,73,0.00,,,0.00,VWS V14.01,2013-03-04 06:35:00,
2013-03-04 01:40:00,32.6,24.9,29.59,WSW,237,1.0,14.0,73,0.00,,,0.00,VWS V14.01,2013-03-04 06:40:00,
2013-03-04 01:45:00,32.5,25.1,29.59,WNW,288,4.0,14.0,74,0.00,,,0.00,VWS V14.01,2013-03-04 06:45:00,
2013-03-04 01:50:00,32.5,25.1,29.59,West,268,4.0,14.0,74,0.00,,,0.00,VWS V14.01,2013-03-04 06:50:00,
2013-03-04 01:55:00,32.4,25.0,29.58,West,281,6.0,14.0,74,0.00,,,0.00,VWS V14.01,2013-03-04 06:55:00,
2013-03-04 02:00:00,32.4,25.0,29.59,NW,313,2.0,5.0,74,0.00,,,0.00,VWS V14.01,2013-03-04 07:00:00,
2013-03-04 02:05:00,32.3,25.0,29.59,NW,307,2.0,5.0,74,0.00,,,0.00,VWS V14.01,2013-03-04 07:05:00,
2013-03-04 02:10:00,32.1,24.8,29.59,WNW,295,3.0,11.0,74,0.00,,,0.00,VWS V14.01,2013-03-04 07:10:00,
2013-03-04 02:15:00,32.0,24.7,29.59,WNW,292,4.0,11.0,74,0.00,,,0.00,VWS V14.01,2013-03-04 07:15:00,
2013-03-04 02:20:00,31.9,24.6,29.59,WNW,299,0.0,11.0,74,0.00,,,0.00,VWS V14.01,2013-03-04 07:20:00,
2013-03-04 02:25:00,31.8,24.5,29.59,NE,47,3.0,11.0,74,0.00,,,0.00,VWS V14.01,2013-03-04 07:25:00,
2013-03-04 02:30:00,31.6,24.3,29.58,NW,309,4.0,11.0,74,0.00,,,0.00,VWS V14.01,2013-03-04 07:30:00,
2013-03-04 02:35:00,31.5,24.2,29.59,WNW,296,7.0,11.0,74,0.00,,,0.00,VWS V14.01,2013-03-04 07:35:00,
2013-03-04 02:40:00,31.4,24.1,29.59,West,275,4.0,11.0,74,0.00,,,0.00,VWS V14.01,2013-03-04 07:40:00,
2013-03-04 02:45:00,31.4,24.1,29.59,WNW,292,3.0,11.0,74,0.00,,,0.00,VWS V14.01,2013-03-04 07:45:00,
2013-03-04 02:50:00,31.3,24.3,29.59,WNW,302,8.0,11.0,75,0.00,,,0.00,VWS V14.01,2013-03-04 07:50:00,
2013-03-04 02:55:00,31.3,24.0,29.59,WSW,248,0.0,11.0,74,0.00,,,0.00,VWS V14.01,2013-03-04 07:55:00,
2013-03-04 03:00:00,31.3,24.3,29.59,NNE,22,3.0,7.0,75,0.00,,,0.00,VWS V14.01,2013-03-04 08:00:00,
2013-03-04 03:05:00,31.3,24.0,29.59,WNW,288,5.0,12.0,74,0.00,,,0.00,VWS V14.01,2013-03-04 08:05:00,
2013-03-04 03:10:00,31.4,24.1,29.59,West,275,1.0,12.0,74,0.00,,,0.00,VWS V14.01,2013-03-04 08:10:00,
2013-03-04 03:15:00,31.4,24.1,29.58,WNW,291,4.0,12.0,74,0.00,,,0.00,VWS V14.01,2013-03-04 08:15:00,
2013-03-04 03:20:00,31.3,24.0,29.59,WNW,297,4.0,12.0,74,0.00,,,0.00,VWS V14.01,2013-03-04 08:20:00,
2013-03-04 03:25:00,31.3,24.0,29.59,SW,229,1.0,12.0,74,0.00,,,0.00,VWS V14.01,2013-03-04 08:25:00,
2013-03-04 03:30:00,31.2,24.2,29.59,West,277,3.0,12.0,75,0.00,,,0.00,VWS V14.01,2013-03-04 08:30:00,
2013-03-04 03:35:00,31.2,24.2,29.59,WNW,295,1.0,12.0,75,0.00,,,0.00,VWS V14.01,2013-03-04 08:35:00,
2013-03-04 03:40:00,31.0,24.0,29.59,NW,310,0.0,12.0,75,0.00,,,0.00,VWS V14.01,2013-03-04 08:40:00,
2013-03-04 03:45:00,31.0,24.0,29.59,SSW,206,3.0,12.0,75,0.00,,,0.00,VWS V14.01,2013-03-04 08:45:00,
2013-03-04 03:50:00,30.9,23.9,29.59,WNW,288,6.0,12.0,75,0.00,,,0.00,VWS V14.01,2013-03-04 08:50:00,
2013-03-04 03:55:00,30.9,23.9,29.59,WNW,295,2.0,12.0,75,0.00,,,0.00,VWS V14.01,2013-03-04 08:55:00,
2013-03-04 04:00:00,30.8,23.8,29.59,WNW,296,4.0,7.0,75,0.00,,,0.00,VWS V14.01,2013-03-04 09:00:00,
2013-03-04 04:05:00,30.8,23.8,29.59,NW,323,0.0,7.0,75,0.00,,,0.00,VWS V14.01,2013-03-04 09:05:00,
2013-03-04 04:10:00,30.7,23.7,29.59,WNW,298,1.0,9.0,75,0.00,,,0.00,VWS V14.01,2013-03-04 09:10:00,
2013-03-04 04:15:00,30.7,23.7,29.60,NNE,14,4.0,9.0,75,0.00,,,0.00,VWS V14.01,2013-03-04 09:15:00,
2013-03-04 04:20:00,30.6,23.6,29.60,WNW,296,1.0,9.0,75,0.00,,,0.00,VWS V14.01,2013-03-04 09:20:00,
2013-03-04 04:25:00,30.6,23.6,29.60,WNW,298,2.0,9.0,75,0.00,,,0.00,VWS V14.01,2013-03-04 09:25:00,
2013-03-04 04:30:00,30.4,23.8,29.60,WNW,301,3.0,9.0,76,0.00,,,0.00,VWS V14.01,2013-03-04 09:30:00,
2013-03-04 04:35:00,30.3,23.7,29.60,WNW,296,4.0,9.0,76,0.00,,,0.00,VWS V14.01,2013-03-04 09:35:00,
2013-03-04 04:40:00,30.2,23.9,29.60,WNW,300,3.0,9.0,77,0.00,,,0.00,VWS V14.01,2013-03-04 09:40:00,
2013-03-04 04:45:00,30.2,23.6,29.60,West,279,3.0,9.0,76,0.00,,,0.00,VWS V14.01,2013-03-04 09:45:00,
2013-03-04 04:50:00,30.2,23.6,29.60,WNW,294,3.0,9.0,76,0.00,,,0.00,VWS V14.01,2013-03-04 09:50:00,
2013-03-04 04:55:00,30.1,23.5,29.60,WNW,294,3.0,9.0,76,0.00,,,0.00,VWS V14.01,2013-03-04 09:55:00,
2013-03-04 05:00:00,30.1,23.5,29.60,WNW,288,3.0,4.0,76,0.00,,,0.00,VWS V14.01,2013-03-04 10:00:00,
2013-03-04 05:05:00,30.1,23.5,29.60,WNW,290,4.0,8.0,76,0.00,,,0.00,VWS V14.01,2013-03-04 10:05:00,
2013-03-04 05:10:00,30.1,23.1,29.60,WNW,300,2.0,8.0,75,0.00,,,0.00,VWS V14.01,2013-03-04 10:10:00,
2013-03-04 05:15:00,30.1,23.1,29.60,West,279,4.0,8.0,75,0.00,,,0.00,VWS V14.01,2013-03-04 10:15:00,
2013-03-04 05:20:00,30.1,23.1,29.60,WSW,254,1.0,8.0,75,0.00,,,0.00,VWS V14.01,2013-03-04 10:20:00,
2013-03-04 05:25:00,30.0,23.0,29.60,West,280,3.0,9.0,75,0.00,,,0.00,VWS V14.01,2013-03-04 10:25:00,
2013-03-04 05:30:00,30.0,22.7,29.60,WNW,288,3.0,9.0,74,0.00,,,0.00,VWS V14.01,2013-03-04 10:30:00,
2013-03-04 05:35:00,30.0,22.7,29.60,South,183,1.0,9.0,74,0.00,,,0.00,VWS V14.01,2013-03-04 10:35:00,
2013-03-04 05:40:00,29.9,22.6,29.60,West,271,1.0,9.0,74,0.00,,,0.00,VWS V14.01,2013-03-04 10:40:00,
2013-03-04 05:45:00,29.8,22.5,29.60,West,279,5.0,9.0,74,0.00,,,0.00,VWS V14.01,2013-03-04 10:45:00,
2013-03-04 05:50:00,29.8,22.5,29.60,WNW,284,6.0,10.0,74,0.00,,,0.00,VWS V14.01,2013-03-04 10:50:00,
2013-03-04 05:55:00,29.8,22.5,29.60,WNW,294,3.0,12.0,74,0.00,,,0.00,VWS V14.01,2013-03-04 10:55:00,
2013-03-04 06:00:00,29.7,22.4,29.60,WNW,291,2.0,7.0,74,0.00,,,0.00,VWS V14.01,2013-03-04 11:00:00,
2013-03-04 06:05:00,29.7,22.1,29.60,WNW,288,9.0,9.0,73,0.00,,,0.00,VWS V14.01,2013-03-04 11:05:00,
2013-03-04 06:10:00,29.7,22.1,29.60,WNW,294,3.0,15.0,73,0.00,,,0.00,VWS V14.01,2013-03-04 11:10:00,
2013-03-04 06:15:00,29.6,22.0,29.60,West,275,1.0,15.0,73,0.00,,,0.00,VWS V14.01,2013-03-04 11:15:00,
2013-03-04 06:20:00,29.5,21.9,29.60,WNW,292,4.0,15.0,73,0.00,,,0.00,VWS V14.01,2013-03-04 11:20:00,
2013-03-04 06:25:00,29.6,22.0,29.60,NW,323,1.0,15.0,73,0.00,,,0.00,VWS V14.01,2013-03-04 11:25:00,
2013-03-04 06:30:00,29.5,21.9,29.61,WNW,284,2.0,15.0,73,0.00,,,0.00,VWS V14.01,2013-03-04 11:30:00,
2013-03-04 06:35:00,29.4,21.8,29.61,West,264,1.0,15.0,73,0.00,,,0.00,VWS V14.01,2013-03-04 11:35:00,
2013-03-04 06:40:00,29.4,21.5,29.61,West,277,3.0,15.0,72,0.00,,,0.00,VWS V14.01,2013-03-04 11:40:00,
2013-03-04 06:45:00,29.4,21.5,29.61,NW,304,4.0,15.0,72,0.00,,,0.00,VWS V14.01,2013-03-04 11:45:00,
2013-03-04 06:50:00,29.4,21.5,29.61,NNW,331,1.0,15.0,72,0.00,,,0.00,VWS V14.01,2013-03-04 11:50:00,
2013-03-04 06:55:00,29.4,21.5,29.61,SW,221,6.0,15.0,72,0.00,,,0.00,VWS V14.01,2013-03-04 11:55:00,
2013-03-04 07:00:00,29.4,21.5,29.61,WNW,292,14.0,14.0,72,0.00,,,0.00,VWS V14.01,2013-03-04 12:00:00,
2013-03-04 07:05:00,29.4,21.2,29.61,WNW,296,2.0,14.0,71,0.00,,,0.00,VWS V14.01,2013-03-04 12:05:00,
2013-03-04 07:10:00,29.4,21.5,29.61,West,272,2.0,14.0,72,0.00,,,0.00,VWS V14.01,2013-03-04 12:10:00,
2013-03-04 07:15:00,29.6,21.4,29.61,WNW,291,5.0,14.0,71,0.00,,,0.00,VWS V14.01,2013-03-04 12:15:00,
2013-03-04 07:20:00,29.7,21.1,29.61,WSW,249,4.0,14.0,70,0.00,,,0.00,VWS V14.01,2013-03-04 12:20:00,
2013-03-04 07:25:00,29.8,21.2,29.61,NW,313,5.0,14.0,70,0.00,,,0.00,VWS V14.01,2013-03-04 12:25:00,
2013-03-04 07:30:00,30.1,21.5,29.62,WNW,288,6.0,14.0,70,0.00,,,0.00,VWS V14.01,2013-03-04 12:30:00,
2013-03-04 07:35:00,30.1,21.2,29.62,NW,311,3.0,14.0,69,0.00,,,0.00,VWS V14.01,2013-03-04 12:35:00,
2013-03-04 07:40:00,30.1,21.2,29.62,West,260,2.0,14.0,69,0.00,,,0.00,VWS V14.01,2013-03-04 12:40:00,
2013-03-04 07:45:00,30.1,21.2,29.62,SSW,196,2.0,14.0,69,0.00,,,0.00,VWS V14.01,2013-03-04 12:45:00,
2013-03-04 07:50:00,30.3,21.4,29.62,WNW,294,10.0,14.0,69,0.00,,,0.00,VWS V14.01,2013-03-04 12:50:00,
2013-03-04 07:55:00,30.5,21.6,29.62,WNW,296,4.0,14.0,69,0.00,,,0.00,VWS V14.01,2013-03-04 12:55:00,
2013-03-04 08:00:00,30.6,21.3,29.62,WNW,301,1.0,9.0,68,0.00,,BKN250,0.00,VWS V14.01,2013-03-04 13:00:00,
2013-03-04 08:05:00,30.9,21.2,29.62,SW,226,0.0,12.0,67,0.00,,BKN250,0.00,VWS V14.01,2013-03-04 13:05:00,
2013-03-04 08:10:00,30.9,20.9,29.62,WNW,292,4.0,13.0,66,0.00,,BKN250,0.00,VWS V14.01,2013-03-04 13:10:00,
2013-03-04 08:15:00,31.1,21.4,29.61,WNW,295,6.0,13.0,67,0.00,,BKN250,0.00,VWS V14.01,2013-03-04 13:15:00,
2013-03-04 08:20:00,31.2,21.2,29.61,SW,227,6.0,13.0,66,0.00,,BKN250,0.00,VWS V14.01,2013-03-04 13:20:00,
2013-03-04 08:25:00,31.3,21.3,29.61,NE,51,2.0,13.0,66,0.00,,BKN250,0.00,VWS V14.01,2013-03-04 13:25:00,
2013-03-04 08:30:00,31.7,21.3,29.61,WNW,286,5.0,13.0,65,0.00,,BKN250,0.00,VWS V14.01,2013-03-04 13:30:00,
2013-03-04 08:35:00,31.7,21.3,29.61,NNE,32,11.0,13.0,65,0.00,,BKN250,0.00,VWS V14.01,2013-03-04 13:35:00,
2013-03-04 08:40:00,31.8,21.8,29.61,West,273,9.0,13.0,66,0.00,,BKN250,0.00,VWS V14.01,2013-03-04 13:40:00,
2013-03-04 08:45:00,32.0,21.6,29.61,West,280,3.0,15.0,65,0.00,,BKN250,0.00,VWS V14.01,2013-03-04 13:45:00,
2013-03-04 08:50:00,32.1,21.3,29.60,West,262,7.0,15.0,64,0.00,,BKN250,0.00,VWS V14.01,2013-03-04 13:50:00,
2013-03-04 08:55:00,32.5,22.1,29.60,West,281,4.0,15.0,65,0.00,,BKN250,0.00,VWS V14.01,2013-03-04 13:55:00,
2013-03-04 09:00:00,32.8,21.6,29.60,West,273,4.0,12.0,63,0.00,,FEW030,0.00,VWS V14.01,2013-03-04 14:00:00,
2013-03-04 09:05:00,33.2,22.4,29.60,WNW,284,3.0,12.0,64,0.00,,FEW030,0.00,VWS V14.01,2013-03-04 14:05:00,
2013-03-04 09:10:00,33.4,22.2,29.60,WNW,288,6.0,12.0,63,0.00,,FEW030,0.00,VWS V14.01,2013-03-04 14:10:00,
2013-03-04 09:15:00,33.6,22.4,29.60,NW,309,4.0,14.0,63,0.00,,FEW030,0.00,VWS V14.01,2013-03-04 14:15:00,
2013-03-04 09:20:00,33.7,22.1,29.60,NW,304,6.0,14.0,62,0.00,,FEW030,0.00,VWS V14.01,2013-03-04 14:20:00,
2013-03-04 09:25:00,33.8,22.2,29.60,NW,309,2.0,14.0,62,0.00,,FEW030,0.00,VWS V14.01,2013-03-04 14:25:00,
2013-03-04 09:30:00,34.0,22.0,29.60,NW,313,2.0,14.0,61,0.00,,FEW030,0.00,VWS V14.01,2013-03-04 14:30:00,
2013-03-04 09:35:00,34.3,22.3,29.60,WNW,298,2.0,14.0,61,0.00,,FEW030,0.00,VWS V14.01,2013-03-04 14:35:00,
2013-03-04 09:40:00,34.7,22.2,29.60,WNW,302,5.0,14.0,60,0.00,,FEW030,0.00,VWS V14.01,2013-03-04 14:40:00,
2013-03-04 09:45:00,34.8,22.0,29.60,WNW,288,5.0,14.0,59,0.00,,FEW030,0.00,VWS V14.01,2013-03-04 14:45:00,
2013-03-04 09:50:00,34.6,21.8,29.60,NW,317,4.0,14.0,59,0.00,,FEW030,0.00,VWS V14.01,2013-03-04 14:50:00,
2013-03-04 09:55:00,34.4,22.0,29.60,West,273,2.0,14.0,60,0.00,,FEW030,0.00,VWS V14.01,2013-03-04 14:55:00,
2013-03-04 10:00:00,34.5,22.1,29.60,WNW,296,6.0,8.0,60,0.00,,FEW030,0.00,VWS V14.01,2013-03-04 15:00:00,
2013-03-04 10:05:00,34.7,21.9,29.60,WSW,250,5.0,10.0,59,0.00,,FEW030,0.00,VWS V14.01,2013-03-04 15:05:00,
2013-03-04 10:10:00,34.7,21.9,29.60,NW,306,4.0,13.0,59,0.00,,FEW030,0.00,VWS V14.01,2013-03-04 15:10:00,
2013-03-04 10:15:00,35.4,22.9,29.60,NW,317,3.0,13.0,60,0.00,,FEW030,0.00,VWS V14.01,2013-03-04 15:15:00,
2013-03-04 10:20:00,35.5,22.2,29.60,WNW,294,5.0,13.0,58,0.00,,FEW030,0.00,VWS V14.01,2013-03-04 15:20:00,
2013-03-04 10:25:00,35.4,22.1,29.60,NW,321,4.0,13.0,58,0.00,,FEW030,0.00,VWS V14.01,2013-03-04 15:25:00,
2013-03-04 10:30:00,35.2,22.3,29.59,NW,308,1.0,15.0,59,0.00,,FEW030,0.00,VWS V14.01,2013-03-04 15:30:00,
2013-03-04 10:35:00,35.6,22.3,29.59,SW,226,2.0,15.0,58,0.00,,FEW030,0.00,VWS V14.01,2013-03-04 15:35:00,
2013-03-04 10:40:00,36.1,22.4,29.59,WNW,292,2.0,15.0,57,0.00,,FEW030,0.00,VWS V14.01,2013-03-04 15:40:00,
2013-03-04 10:45:00,36.0,21.8,29.59,West,269,1.0,15.0,56,0.00,,FEW030,0.00,VWS V14.01,2013-03-04 15:45:00,
2013-03-04 10:50:00,36.1,22.4,29.59,NW,325,9.0,15.0,57,0.00,,FEW030,0.00,VWS V14.01,2013-03-04 15:50:00,
2013-03-04 10:55:00,35.9,22.2,29.59,WNW,299,6.0,15.0,57,0.00,,FEW030,0.00,VWS V14.01,2013-03-04 15:55:00,
2013-03-04 11:00:00,36.2,22.5,29.59,WNW,296,4.0,9.0,57,0.00,,FEW030,0.00,VWS V14.01,2013-03-04 16:00:00,
2013-03-04 11:05:00,36.3,22.1,29.59,ENE,65,3.0,14.0,56,0.00,,SCT035,0.00,VWS V14.01,2013-03-04 16:05:00,
2013-03-04 11:10:00,36.3,22.1,29.59,NW,306,3.0,14.0,56,0.00,,SCT035,0.00,VWS V14.01,2013-03-04 16:10:00,
2013-03-04 11:15:00,36.1,21.9,29.60,NNE,19,8.0,17.0,56,0.00,,SCT035,0.00,VWS V14.01,2013-03-04 16:15:00,
2013-03-04 11:20:00,35.6,21.9,29.59,WNW,293,3.0,17.0,57,0.00,,SCT035,0.00,VWS V14.01,2013-03-04 16:20:00,
2013-03-04 11:25:00,35.7,22.0,29.59,WNW,292,3.0,17.0,57,0.00,,SCT035,0.00,VWS V14.01,2013-03-04 16:25:00,
2013-03-04 11:30:00,35.7,22.0,29.59,WNW,302,3.0,17.0,57,0.00,,SCT035,0.00,VWS V14.01,2013-03-04 16:30:00,
2013-03-04 11:35:00,35.6,21.9,29.59,West,271,3.0,17.0,57,0.00,,SCT035,0.00,VWS V14.01,2013-03-04 16:35:00,
2013-03-04 11:40:00,35.7,22.0,29.59,East,98,1.0,17.0,57,0.00,,SCT035,0.00,VWS V14.01,2013-03-04 16:40:00,
2013-03-04 11:45:00,35.9,22.2,29.59,NW,317,3.0,17.0,57,0.00,,SCT035,0.00,VWS V14.01,2013-03-04 16:45:00,
2013-03-04 11:50:00,36.1,22.8,29.59,WNW,287,3.0,17.0,58,0.00,,SCT035,0.00,VWS V14.01,2013-03-04 16:50:00,
2013-03-04 11:55:00,36.7,22.9,29.59,WNW,290,6.0,17.0,57,0.00,,SCT035,0.00,VWS V14.01,2013-03-04 16:55:00,
2013-03-04 12:00:00,36.7,22.5,29.59,West,263,8.0,14.0,56,0.00,,SCT035,0.00,VWS V14.01,2013-03-04 17:00:00,
2013-03-04 12:05:00,37.0,22.8,29.59,West,277,6.0,14.0,56,0.00,,FEW037,0.00,VWS V14.01,2013-03-04 17:05:00,
2013-03-04 12:10:00,37.0,22.4,29.59,WNW,292,10.0,14.0,55,0.00,,FEW037,0.00,VWS V14.01,2013-03-04 17:10:00,
2013-03-04 12:15:00,36.9,22.3,29.59,West,264,5.0,14.0,55,0.00,,FEW037,0.00,VWS V14.01,2013-03-04 17:15:00,
2013-03-04 12:20:00,37.0,22.8,29.58,WNW,303,2.0,14.0,56,0.00,,FEW037,0.00,VWS V14.01,2013-03-04 17:20:00,
2013-03-04 12:25:00,37.1,22.4,29.58,SSW,196,6.0,14.0,55,0.00,,FEW037,0.00,VWS V14.01,2013-03-04 17:25:00,
2013-03-04 12:30:00,36.9,22.7,29.58,WNW,286,5.0,14.0,56,0.00,,FEW037,0.00,VWS V14.01,2013-03-04 17:30:00,
2013-03-04 12:35:00,36.9,22.3,29.58,WNW,285,3.0,14.0,55,0.00,,FEW037,0.00,VWS V14.01,2013-03-04 17:35:00,
2013-03-04 12:40:00,37.0,22.8,29.58,WNW,300,2.0,14.0,56,0.00,,FEW037,0.00,VWS V14.01,2013-03-04 17:40:00,
2013-03-04 12:45:00,37.3,23.1,29.58,NW,306,4.0,14.0,56,0.00,,FEW037,0.00,VWS V14.01,2013-03-04 17:45:00,
2013-03-04 12:50:00,37.4,22.7,29.57,NW,306,6.0,14.0,55,0.00,,FEW037,0.00,VWS V14.01,2013-03-04 17:50:00,
2013-03-04 12:55:00,37.5,23.2,29.57,West,260,1.0,14.0,56,0.00,,FEW037,0.00,VWS V14.01,2013-03-04 17:55:00,
2013-03-04 13:00:00,37.8,23.1,29.57,West,280,3.0,11.0,55,0.00,,FEW037,0.00,VWS V14.01,2013-03-04 18:00:00,
2013-03-04 13:05:00,37.7,23.0,29.57,WSW,257,9.0,13.0,55,0.00,,BKN250,0.00,VWS V14.01,2013-03-04 18:05:00,
2013-03-04 13:10:00,37.6,22.9,29.57,West,280,10.0,17.0,55,0.00,,BKN250,0.00,VWS V14.01,2013-03-04 18:10:00,
2013-03-04 13:15:00,37.7,23.0,29.57,NW,317,8.0,17.0,55,0.00,,BKN250,0.00,VWS V14.01,2013-03-04 18:15:00,
2013-03-04 13:20:00,37.6,22.9,29.57,NW,313,6.0,17.0,55,0.00,,BKN250,0.00,VWS V14.01,2013-03-04 18:20:00,
2013-03-04 13:25:00,37.5,22.8,29.57,WNW,286,3.0,17.0,55,0.00,,BKN250,0.00,VWS V14.01,2013-03-04 18:25:00,
2013-03-04 13:29:00,37.5,22.8,29.57,West,268,3.0,17.0,55,0.00,,BKN250,0.00,VWS V14.01,2013-03-04 18:29:00,
2013-03-04 13:34:00,37.9,23.2,29.57,WNW,294,10.0,17.0,55,0.00,,BKN250,0.00,VWS V14.01,2013-03-04 18:34:00,
2013-03-04 13:39:00,38.1,23.4,29.57,WNW,292,2.0,17.0,55,0.00,,BKN250,0.00,VWS V14.01,2013-03-04 18:39:00,
2013-03-04 13:44:00,38.2,23.5,29.57,WNW,288,4.0,17.0,55,0.00,,BKN250,0.00,VWS V14.01,2013-03-04 18:44:00,
2013-03-04 13:49:00,38.3,23.6,29.57,WNW,291,9.0,17.0,55,0.00,,BKN250,0.00,VWS V14.01,2013-03-04 18:49:00,
2013-03-04 13:54:00,38.1,23.4,29.57,WNW,295,2.0,17.0,55,0.00,,BKN250,0.00,VWS V14.01,2013-03-04 18:54:00,
2013-03-04 13:59:00,38.2,23.9,29.57,WNW,292,3.0,5.0,56,0.00,,BKN250,0.00,VWS V14.01,2013-03-04 18:59:00,
2013-03-04 14:04:00,38.6,24.7,29.57,NW,323,5.0,11.0,57,0.00,,OVC055,0.00,VWS V14.01,2013-03-04 19:04:00,
2013-03-04 14:10:00,38.7,23.9,29.57,WNW,294,7.0,11.0,55,0.00,,OVC055,0.00,VWS V14.01,2013-03-04 19:10:00,
2013-03-04 14:15:00,38.4,24.1,29.57,WNW,292,4.0,18.0,56,0.00,,OVC055,0.00,VWS V14.01,2013-03-04 19:15:00,
2013-03-04 14:20:00,38.1,24.2,29.57,West,264,6.0,18.0,57,0.00,,OVC055,0.00,VWS V14.01,2013-03-04 19:20:00,
2013-03-04 14:25:00,38.1,24.6,29.57,WNW,298,4.0,18.0,58,0.00,,OVC055,0.00,VWS V14.01,2013-03-04 19:25:00,
2013-03-04 14:30:00,38.4,25.3,29.57,WNW,285,5.0,18.0,59,0.00,,OVC055,0.00,VWS V14.01,2013-03-04 19:30:00,
2013-03-04 14:35:00,38.4,24.9,29.57,WNW,298,8.0,18.0,58,0.00,,OVC055,0.00,VWS V14.01,2013-03-04 19:35:00,
2013-03-04 14:40:00,37.9,25.3,29.57,WNW,295,2.0,18.0,60,0.00,,OVC055,0.00,VWS V14.01,2013-03-04 19:40:00,
2013-03-04 14:45:00,37.8,25.2,29.57,WNW,296,9.0,18.0,60,0.00,,OVC055,0.00,VWS V14.01,2013-03-04 19:45:00,
2013-03-04 14:50:00,37.7,25.1,29.57,WNW,285,3.0,18.0,60,0.00,,OVC055,0.00,VWS V14.01,2013-03-04 19:50:00,
2013-03-04 14:55:00,37.8,25.2,29.57,WNW,288,7.0,18.0,60,0.00,,OVC055,0.00,VWS V14.01,2013-03-04 19:55:00,
2013-03-04 15:00:00,37.7,25.5,29.58,NW,306,9.0,13.0,61,0.00,,OVC060,0.00,VWS V14.01,2013-03-04 20:00:00,
2013-03-04 15:05:00,37.5,25.7,29.58,WNW,292,3.0,13.0,62,0.00,,OVC060,0.00,VWS V14.01,2013-03-04 20:05:00,
2013-03-04 15:10:00,37.5,25.7,29.58,WNW,286,3.0,13.0,62,0.00,,OVC060,0.00,VWS V14.01,2013-03-04 20:10:00,
2013-03-04 15:15:00,37.3,25.1,29.58,NW,307,10.0,13.0,61,0.00,,OVC060,0.00,VWS V14.01,2013-03-04 20:15:00,
2013-03-04 15:20:00,37.0,24.8,29.58,SW,221,3.0,13.0,61,0.00,,OVC060,0.00,VWS V14.01,2013-03-04 20:20:00,
2013-03-04 15:25:00,37.0,25.2,29.58,WNW,292,5.0,15.0,62,0.00,,OVC060,0.00,VWS V14.01,2013-03-04 20:25:00,
2013-03-04 15:30:00,37.1,25.3,29.58,NW,306,6.0,15.0,62,0.00,,OVC060,0.00,VWS V14.01,2013-03-04 20:30:00,
2013-03-04 15:35:00,36.9,25.1,29.58,WSW,246,8.0,15.0,62,0.00,,OVC060,0.00,VWS V14.01,2013-03-04 20:35:00,
2013-03-04 15:40:00,36.7,25.3,29.58,WNW,288,9.0,15.0,63,0.00,,OVC060,0.00,VWS V14.01,2013-03-04 20:40:00,
2013-03-04 15:45:00,36.5,25.1,29.58,WNW,292,6.0,15.0,63,0.00,,OVC060,0.00,VWS V14.01,2013-03-04 20:45:00,
2013-03-04 15:50:00,36.5,25.1,29.58,WNW,286,5.0,15.0,63,0.00,,OVC060,0.00,VWS V14.01,2013-03-04 20:50:00,
2013-03-04 15:55:00,36.6,25.6,29.58,WNW,298,2.0,15.0,64,0.00,,OVC060,0.00,VWS V14.01,2013-03-04 20:55:00,
2013-03-04 16:00:00,36.5,25.5,29.58,WNW,303,4.0,5.0,64,0.00,,OVC060,0.00,VWS V14.01,2013-03-04 21:00:00,
2013-03-04 16:05:00,36.4,25.4,29.59,WNW,298,5.0,15.0,64,0.00,,OVC060,0.00,VWS V14.01,2013-03-04 21:05:00,
2013-03-04 16:10:00,36.2,25.6,29.59,WNW,294,7.0,15.0,65,0.00,,OVC060,0.00,VWS V14.01,2013-03-04 21:10:00,
2013-03-04 16:15:00,36.1,25.5,29.59,WNW,288,2.0,15.0,65,0.00,,OVC060,0.00,VWS V14.01,2013-03-04 21:15:00,
2013-03-04 16:20:00,36.0,25.4,29.59,WNW,296,4.0,15.0,65,0.00,,OVC060,0.00,VWS V14.01,2013-03-04 21:20:00,
2013-03-04 16:25:00,36.1,25.9,29.59,WNW,284,1.0,15.0,66,0.00,,OVC060,0.00,VWS V14.01,2013-03-04 21:25:00,
2013-03-04 16:30:00,36.2,26.0,29.59,WNW,296,3.0,15.0,66,0.00,,OVC060,0.00,VWS V14.01,2013-03-04 21:30:00,
2013-03-04 16:35:00,36.0,25.8,29.60,WNW,299,4.0,15.0,66,0.00,,OVC060,0.00,VWS V14.01,2013-03-04 21:35:00,
2013-03-04 16:40:00,35.9,26.0,29.60,WNW,295,3.0,15.0,67,0.00,,OVC060,0.00,VWS V14.01,2013-03-04 21:40:00,
2013-03-04 16:45:00,35.8,26.3,29.60,WNW,290,5.0,15.0,68,0.00,,OVC060,0.00,VWS V14.01,2013-03-04 21:45:00,
2013-03-04 16:50:00,35.5,26.4,29.60,WNW,290,6.0,15.0,69,0.00,,OVC060,0.00,VWS V14.01,2013-03-04 21:50:00,
2013-03-04 16:55:00,35.3,26.2,29.61,WNW,286,11.0,15.0,69,0.00,,OVC060,0.00,VWS V14.01,2013-03-04 21:55:00,
2013-03-04 17:00:00,35.3,26.2,29.61,NW,325,4.0,12.0,69,0.00,,OVC070,0.00,VWS V14.01,2013-03-04 22:00:00,
2013-03-04 17:05:00,35.2,26.1,29.61,West,281,9.0,14.0,69,0.00,,OVC070,0.00,VWS V14.01,2013-03-04 22:05:00,
2013-03-04 17:10:00,35.3,26.2,29.61,NW,307,8.0,14.0,69,0.00,,OVC070,0.00,VWS V14.01,2013-03-04 22:10:00,
2013-03-04 17:15:00,35.2,26.1,29.61,NW,310,5.0,14.0,69,0.00,,OVC070,0.00,VWS V14.01,2013-03-04 22:15:00,
2013-03-04 17:20:00,35.1,26.0,29.62,West,281,8.0,14.0,69,0.00,,OVC070,0.00,VWS V14.01,2013-03-04 22:20:00,
2013-03-04 17:25:00,35.0,25.9,29.62,NNE,12,5.0,14.0,69,0.00,,OVC070,0.00,VWS V14.01,2013-03-04 22:25:00,
2013-03-04 17:30:00,35.0,25.9,29.62,WNW,288,4.0,14.0,69,0.00,,OVC070,0.00,VWS V14.01,2013-03-04 22:30:00,
2013-03-04 17:35:00,34.9,25.8,29.62,WNW,290,6.0,14.0,69,0.00,,OVC070,0.00,VWS V14.01,2013-03-04 22:35:00,
2013-03-04 17:40:00,34.7,25.9,29.62,NW,307,8.0,14.0,70,0.00,,OVC070,0.00,VWS V14.01,2013-03-04 22:40:00,
2013-03-04 17:45:00,34.6,25.8,29.63,WNW,286,11.0,14.0,70,0.00,,OVC070,0.00,VWS V14.01,2013-03-04 22:45:00,
2013-03-04 17:50:00,34.6,25.8,29.64,WNW,301,4.0,14.0,70,0.00,,OVC070,0.00,VWS V14.01,2013-03-04 22:50:00,
2013-03-04 17:55:00,34.5,26.1,29.64,WNW,302,6.0,14.0,71,0.00,,OVC070,0.00,VWS V14.01,2013-03-04 22:55:00,
2013-03-04 18:00:00,34.1,26.0,29.64,WNW,294,9.0,15.0,72,0.00,,OVC038,0.00,VWS V14.01,2013-03-04 23:00:00,
2013-03-04 18:05:00,33.9,26.2,29.64,ESE,116,8.0,15.0,73,0.00,,OVC038,0.00,VWS V14.01,2013-03-04 23:05:00,
2013-03-04 18:10:00,33.7,26.3,29.65,West,281,6.0,15.0,74,0.00,,OVC038,0.00,VWS V14.01,2013-03-04 23:10:00,
2013-03-04 18:15:00,33.5,26.8,29.65,West,281,10.0,15.0,76,0.00,,OVC038,0.00,VWS V14.01,2013-03-04 23:15:00,
2013-03-04 18:20:00,33.3,26.6,29.65,WNW,292,5.0,15.0,76,0.00,,OVC038,0.00,VWS V14.01,2013-03-04 23:20:00,
2013-03-04 18:25:00,33.2,26.8,29.65,NW,325,1.0,15.0,77,0.00,,OVC038,0.00,VWS V14.01,2013-03-04 23:25:00,
2013-03-04 18:30:00,33.1,27.0,29.66,NNW,344,7.0,15.0,78,0.00,,OVC038,0.00,VWS V14.01,2013-03-04 23:30:00,
2013-03-04 18:35:00,32.8,27.0,29.66,NW,319,2.0,15.0,79,0.00,,OVC038,0.00,VWS V14.01,2013-03-04 23:35:00,
2013-03-04 18:40:00,32.5,27.3,29.66,NW,325,5.0,15.0,81,0.00,,OVC038,0.00,VWS V14.01,2013-03-04 23:40:00,
2013-03-04 18:45:00,32.2,27.6,29.66,NW,318,4.0,15.0,83,0.00,,OVC038,0.00,VWS V14.01,2013-03-04 23:45:00,
2013-03-04 18:50:00,32.0,27.7,29.66,NW,321,5.0,15.0,84,0.00,,OVC038,0.00,VWS V14.01,2013-03-04 23:50:00,
2013-03-04 18:55:00,31.8,27.8,29.66,NW,311,5.0,15.0,85,0.00,,OVC038,0.00,VWS V14.01,2013-03-04 23:55:00,
2013-03-04 19:00:00,31.8,27.8,29.66,WNW,294,2.0,7.0,85,0.00,,,0.00,VWS V14.01,2013-03-05 00:00:00,
2013-03-04 19:05:00,31.8,27.5,29.66,WNW,300,3.0,7.0,84,0.00,,,0.00,VWS V14.01,2013-03-05 00:05:00,
2013-03-04 19:10:00,31.8,27.5,29.66,WNW,298,3.0,8.0,84,0.00,,,0.00,VWS V14.01,2013-03-05 00:10:00,
2013-03-04 19:15:00,31.9,27.6,29.66,WNW,295,4.0,9.0,84,0.00,,,0.00,VWS V14.01,2013-03-05 00:15:00,
2013-03-04 19:20:00,32.0,27.4,29.66,WNW,292,1.0,9.0,83,0.00,,,0.00,VWS V14.01,2013-03-05 00:20:00,
2013-03-04 19:25:00,32.1,27.2,29.66,NW,325,4.0,9.0,82,0.00,,,0.00,VWS V14.01,2013-03-05 00:25:00,
2013-03-04 19:30:00,32.1,27.2,29.66,NW,321,5.0,9.0,82,0.00,,,0.00,VWS V14.01,2013-03-05 00:30:00,
2013-03-04 19:35:00,32.2,27.0,29.66,NNW,332,5.0,9.0,81,0.00,,,0.00,VWS V14.01,2013-03-05 00:35:00,
2013-03-04 19:40:00,32.3,26.8,29.66,West,271,3.0,10.0,80,0.00,,,0.00,VWS V14.01,2013-03-05 00:40:00,
2013-03-04 19:45:00,32.3,26.8,29.66,WNW,296,6.0,11.0,80,0.00,,,0.00,VWS V14.01,2013-03-05 00:45:00,
2013-03-04 19:50:00,32.5,26.4,29.67,SW,236,2.0,16.0,78,0.00,,,0.00,VWS V14.01,2013-03-05 00:50:00,
2013-03-04 19:55:00,32.5,26.4,29.67,WNW,302,4.0,16.0,78,0.00,,,0.00,VWS V14.01,2013-03-05 00:55:00,
2013-03-04 20:00:00,32.6,26.2,29.67,WNW,302,3.0,12.0,77,0.00,,,0.00,VWS V14.01,2013-03-05 01:00:00,
2013-03-04 20:36:00,32.8,25.1,29.68,NNW,345,2.0,2.0,73,0.00,,,0.00,VWS V14.01,2013-03-05 01:36:00,
2013-03-04 20:42:00,32.8,25.1,29.68,WNW,290,12.0,15.0,73,0.00,,,0.00,VWS V14.01,2013-03-05 01:42:00,
2013-03-04 20:47:00,32.8,24.8,29.69,NE,49,6.0,15.0,72,0.00,,,0.00,VWS V14.01,2013-03-05 01:47:00,
2013-03-04 20:52:00,32.8,24.5,29.69,East,88,10.0,16.0,71,0.00,,,0.00,VWS V14.01,2013-03-05 01:52:00,
2013-03-04 20:57:00,32.8,24.5,29.69,NW,321,4.0,16.0,71,0.00,,,0.00,VWS V14.01,2013-03-05 01:57:00,
2013-03-04 21:02:00,32.7,24.4,29.69,NW,304,6.0,11.0,71,0.00,,OVC085,0.00,VWS V14.01,2013-03-05 02:02:00,
2013-03-04 21:07:00,32.7,24.0,29.69,WNW,283,4.0,12.0,70,0.00,,OVC085,0.00,VWS V14.01,2013-03-05 02:07:00,
2013-03-04 21:12:00,32.6,23.9,29.69,WNW,296,7.0,13.0,70,0.00,,OVC085,0.00,VWS V14.01,2013-03-05 02:12:00,
2013-03-04 21:17:00,32.6,23.6,29.69,NNW,331,3.0,18.0,69,0.00,,OVC085,0.00,VWS V14.01,2013-03-05 02:17:00,
2013-03-04 21:22:00,32.5,23.8,29.69,NW,323,4.0,18.0,70,0.00,,OVC085,0.00,VWS V14.01,2013-03-05 02:22:00,
2013-03-04 21:27:00,32.4,23.7,29.69,NNW,329,4.0,18.0,70,0.00,,OVC085,0.00,VWS V14.01,2013-03-05 02:27:00,
2013-03-04 21:32:00,32.4,23.4,29.69,WNW,290,7.0,18.0,69,0.00,,OVC085,0.00,VWS V14.01,2013-03-05 02:32:00,
2013-03-04 21:37:00,32.4,23.4,29.70,NNW,329,4.0,18.0,69,0.00,,OVC085,0.00,VWS V14.01,2013-03-05 02:37:00,
2013-03-04 21:42:00,32.3,23.3,29.70,WNW,297,5.0,18.0,69,0.00,,OVC085,0.00,VWS V14.01,2013-03-05 02:42:00,
2013-03-04 21:47:00,32.3,23.3,29.70,NW,311,4.0,18.0,69,0.00,,OVC085,0.00,VWS V14.01,2013-03-05 02:47:00,
2013-03-04 21:52:00,32.3,23.6,29.70,WNW,288,5.0,18.0,70,0.00,,OVC085,0.00,VWS V14.01,2013-03-05 02:52:00,
2013-03-04 21:57:00,32.3,23.6,29.71,West,280,4.0,18.0,70,0.00,,OVC085,0.00,VWS V14.01,2013-03-05 02:57:00,
2013-03-04 22:02:00,32.2,23.2,29.71,NW,311,6.0,11.0,69,0.00,,OVC046,0.00,VWS V14.01,2013-03-05 03:02:00,
2013-03-04 22:07:00,32.2,23.5,29.71,NW,322,7.0,11.0,70,0.00,,OVC046,0.00,VWS V14.01,2013-03-05 03:07:00,
2013-03-04 22:12:00,32.2,23.5,29.71,NNW,327,9.0,12.0,70,0.00,,OVC046,0.00,VWS V14.01,2013-03-05 03:12:00,
2013-03-04 22:17:00,32.1,23.4,29.71,NNE,16,6.0,14.0,70,0.00,,OVC046,0.00,VWS V14.01,2013-03-05 03:17:00,
2013-03-04 22:22:00,32.1,23.4,29.71,WNW,302,3.0,14.0,70,0.00,,OVC046,0.00,VWS V14.01,2013-03-05 03:22:00,
2013-03-04 22:27:00,32.1,23.4,29.71,NW,306,5.0,17.0,70,0.00,,OVC046,0.00,VWS V14.01,2013-03-05 03:27:00,
2013-03-04 22:32:00,32.1,23.4,29.71,WNW,290,3.0,17.0,70,0.00,,OVC046,0.00,VWS V14.01,2013-03-05 03:32:00,
2013-03-04 22:37:00,32.1,23.4,29.71,NNW,348,4.0,17.0,70,0.00,,OVC046,0.00,VWS V14.01,2013-03-05 03:37:00,
2013-03-04 22:42:00,32.0,23.3,29.71,NNW,331,14.0,17.0,70,0.00,,OVC046,0.00,VWS V14.01,2013-03-05 03:42:00,
2013-03-04 22:47:00,32.0,23.3,29.71,NNW,348,2.0,17.0,70,0.00,,OVC046,0.00,VWS V14.01,2013-03-05 03:47:00,
2013-03-04 22:52:00,32.0,23.3,29.72,NW,304,8.0,17.0,70,0.00,,OVC046,0.00,VWS V14.01,2013-03-05 03:52:00,
2013-03-04 22:57:00,31.9,23.2,29.72,WNW,284,5.0,17.0,70,0.00,,OVC046,0.00,VWS V14.01,2013-03-05 03:57:00,
2013-03-04 23:02:00,31.9,23.2,29.72,NNE,26,13.0,13.0,70,0.00,,OVC055,0.00,VWS V14.01,2013-03-05 04:02:00,
2013-03-04 23:07:00,31.9,23.2,29.72,NW,304,4.0,13.0,70,0.00,,OVC055,0.00,VWS V14.01,2013-03-05 04:07:00,
2013-03-04 23:12:00,31.8,23.1,29.72,NW,310,2.0,21.0,70,0.00,,OVC055,0.00,VWS V14.01,2013-03-05 04:12:00,
2013-03-04 23:17:00,31.7,23.0,29.72,WNW,296,4.0,21.0,70,0.00,,OVC055,0.00,VWS V14.01,2013-03-05 04:17:00,
2013-03-04 23:22:00,31.7,23.0,29.72,WNW,292,9.0,21.0,70,0.00,,OVC055,0.00,VWS V14.01,2013-03-05 04:22:00,
2013-03-04 23:27:00,31.7,23.0,29.72,WNW,283,2.0,21.0,70,0.00,,OVC055,0.00,VWS V14.01,2013-03-05 04:27:00,
2013-03-04 23:32:00,31.6,23.0,29.72,NW,304,5.0,21.0,70,0.00,,OVC055,0.00,VWS V14.01,2013-03-05 04:32:00,
2013-03-04 23:37:00,31.6,23.0,29.73,North,350,5.0,21.0,70,0.00,,OVC055,0.00,VWS V14.01,2013-03-05 04:37:00,
2013-03-04 23:42:00,31.6,23.0,29.73,NW,310,2.0,21.0,70,0.00,,OVC055,0.00,VWS V14.01,2013-03-05 04:42:00,
2013-03-04 23:47:00,31.6,23.0,29.73,NW,323,8.0,21.0,70,0.00,,OVC055,0.00,VWS V14.01,2013-03-05 04:47:00,
2013-03-04 23:52:00,31.6,23.0,29.73,NW,319,4.0,21.0,70,0.00,,OVC055,0.00,VWS V14.01,2013-03-05 04:52:00,
2013-03-04 23:57:00,31.6,23.0,29.73,West,280,3.0,21.0,70,0.00,,OVC055,0.00,VWS V14.01,2013-03-05 04:57:00,